Elizabethton, TN

10:55 PM EST on December 04, 2016 (GMT -0500)
Elizabethton

Weather History for K0A9 - April, 2014

Change the Weather History Date:

Monday, April 28, 2014

  Actual Average (KTRI) Record (KTRI)
Temperature  
Mean Temperature 68 °F 59 °F  
Max Temperature 80 °F 71 °F 88 °F (1957)
Min Temperature 57 °F 46 °F 32 °F (1976)
Degree Days  
Heating Degree Days 0 7  
Month to date heating degree days 291  
Since 1 July heating degree days 4241  
Cooling Degree Days 4 1  
Month to date cooling degree days 7  
Year to date cooling degree days 8  
Growing Degree Days 18 (Base 50)    
Moisture  
Dew Point 58 °F    
Average Humidity 75    
Maximum Humidity 100    
Minimum Humidity 39    
Precipitation  
Precipitation 0.00 in 0.11 in 1.15 in (1970)
Month to date precipitation 3.10  
Year to date precipitation 13.36  
Snow  
Snow 0.00 in 0.10 in - ()
Month to date snowfall 1.1  
Since 1 July snowfall 13.3  
Snow Depth -    
Sea Level Pressure  
Sea Level Pressure 29.88 in    
Wind  
Wind Speed 1 mph (ESE)    
Max Wind Speed 9 mph    
Max Gust Speed 21 mph    
Visibility 10 miles    
Events Rain    
T = Trace of Precipitation, MM = Missing Value Source: NWS Daily Summary

Daily Weather History Graph

Daily Weather History Graph

Search for Another Location

Airport or City:

Trip Planner

Search our weather history database for the weather conditions in past years. The results will help you decide how hot, cold, wet, or windy it might be!

Date:

Astronomy

Apr. 28, 2014 Rise Set
Actual Time 6:38 AM EDT 8:14 PM EDT
Civil Twilight 6:11 AM EDT 8:41 PM EDT
Nautical Twilight 5:38 AM EDT 9:14 PM EDT
Astronomical Twilight 5:03 AM EDT 9:49 PM EDT
Moon 6:14 AM EDT (4/28) 7:51 PM EDT (4/28)
Length of Visible Light 14h 29m
Length of Day
13h 35m
Waning Crescent, 0% of the Moon is Illuminated
Apr 28
Waning Crescent
Apr 29
New
May 6
First Quarter
May 14
Full
May 21
Last Quarter

Hourly Weather History & Observations

Time (EDT) Temp. Heat Index Dew Point Humidity Pressure Visibility Wind Dir Wind Speed Gust Speed Precip Events Conditions
12:15 AM 60.8 °F - 51.8 °F 72% 29.96 in 10.0 mi Calm Calm - N/A   Clear
12:35 AM 60.8 °F - 51.8 °F 72% 29.96 in 10.0 mi Calm Calm - N/A   Clear
12:55 AM 60.8 °F - 51.8 °F 72% 29.95 in 10.0 mi Calm Calm - N/A   Clear
1:15 AM 62.6 °F - 51.8 °F 68% 29.96 in 10.0 mi Calm Calm - N/A   Clear
1:35 AM 62.6 °F - 51.8 °F 68% 29.96 in 10.0 mi Calm Calm - N/A   Scattered Clouds
2:15 AM 66.2 °F - 57.2 °F 73% 29.95 in 10.0 mi Calm Calm - N/A   Mostly Cloudy
2:35 AM 64.4 °F - 55.4 °F 73% 29.95 in 10.0 mi Calm Calm - N/A   Mostly Cloudy
2:55 AM 62.6 °F - 55.4 °F 77% 29.95 in 10.0 mi Calm Calm - N/A   Mostly Cloudy
3:15 AM 60.8 °F - 57.2 °F 88% 29.95 in 10.0 mi Calm Calm - N/A Rain Light Rain
3:35 AM 60.8 °F - 57.2 °F 88% 29.96 in 10.0 mi Calm Calm - N/A   Overcast
3:55 AM 60.8 °F - 59.0 °F 94% 29.97 in 7.0 mi Calm Calm - N/A Rain Light Rain
4:15 AM 59.0 °F - 59.0 °F 100% 29.95 in 5.0 mi Calm Calm - N/A Rain Light Rain
4:35 AM 59.0 °F - 57.2 °F 94% 29.94 in 7.0 mi East 5.8 mph - N/A Rain Light Rain
4:55 AM 59.0 °F - 57.2 °F 94% 29.93 in 10.0 mi ENE 5.8 mph - N/A   Mostly Cloudy
5:15 AM 59.0 °F - 57.2 °F 94% 29.92 in 10.0 mi East 4.6 mph - N/A   Mostly Cloudy
5:35 AM 59.0 °F - 57.2 °F 94% 29.92 in 10.0 mi East 5.8 mph - N/A   Partly Cloudy
6:15 AM 57.2 °F - 57.2 °F 100% 29.91 in 10.0 mi Calm Calm - N/A   Clear
6:35 AM 59.0 °F - 57.2 °F 94% 29.91 in 10.0 mi Calm Calm - N/A   Clear
6:55 AM 57.2 °F - 57.2 °F 100% 29.91 in 10.0 mi Calm Calm - N/A   Clear
7:15 AM 59.0 °F - 57.2 °F 94% 29.91 in 10.0 mi Calm Calm - N/A   Partly Cloudy
7:35 AM 60.8 °F - 57.2 °F 88% 29.90 in 10.0 mi Calm Calm - N/A   Scattered Clouds
8:55 AM 66.2 °F - 59.0 °F 78% 29.87 in 10.0 mi Calm Calm - N/A   Clear
9:15 AM 68.0 °F - 60.8 °F 78% 29.88 in 10.0 mi Calm Calm - N/A   Clear
9:35 AM 69.8 °F - 59.0 °F 68% 29.89 in 10.0 mi Calm Calm - N/A   Mostly Cloudy
9:55 AM 69.8 °F - 59.0 °F 68% 29.88 in 10.0 mi Calm Calm - N/A   Mostly Cloudy
10:15 AM 69.8 °F - 59.0 °F 68% 29.87 in 10.0 mi Calm Calm - N/A   Clear
10:35 AM 69.8 °F - 59.0 °F 68% 29.88 in 10.0 mi Calm Calm - N/A   Partly Cloudy
10:55 AM 69.8 °F - 60.8 °F 73% 29.89 in 10.0 mi Calm Calm - N/A   Mostly Cloudy
11:15 AM 71.6 °F - 60.8 °F 69% 29.89 in 10.0 mi Calm Calm - N/A   Partly Cloudy
11:35 AM 71.6 °F - 59.0 °F 64% 29.89 in 10.0 mi Calm Calm - N/A   Clear
11:55 AM 73.4 °F - 59.0 °F 61% 29.88 in 10.0 mi Calm Calm - N/A   Clear
12:15 PM 75.2 °F - 57.2 °F 53% 29.87 in 10.0 mi Calm Calm - N/A   Clear
12:35 PM 75.2 °F - 55.4 °F 50% 29.86 in 10.0 mi Calm Calm - N/A   Clear
12:55 PM 78.8 °F - 53.6 °F 42% 29.86 in 10.0 mi WSW 9.2 mph 13.8 mph N/A   Scattered Clouds
1:15 PM 75.2 °F - 53.6 °F 47% 29.87 in 10.0 mi Calm Calm - N/A   Mostly Cloudy
1:35 PM 78.8 °F - 55.4 °F 44% 29.85 in 10.0 mi Calm Calm - N/A   Partly Cloudy
1:55 PM 80.6 °F 80.3 °F 53.6 °F 39% 29.84 in 10.0 mi Calm Calm - N/A   Clear
2:15 PM 80.6 °F 80.5 °F 55.4 °F 42% 29.83 in 10.0 mi SSW 9.2 mph 15.0 mph N/A   Clear
2:35 PM 80.6 °F 80.5 °F 55.4 °F 42% 29.83 in 10.0 mi Calm Calm - N/A   Partly Cloudy
2:55 PM 80.6 °F 80.5 °F 55.4 °F 42% 29.82 in 10.0 mi Calm Calm - N/A   Mostly Cloudy
3:15 PM 80.6 °F 80.8 °F 57.2 °F 45% 29.82 in 10.0 mi Calm Calm - N/A   Mostly Cloudy
4:35 PM 71.6 °F - 60.8 °F 69% 29.85 in 10.0 mi SSW 3.5 mph 20.7 mph N/A   Mostly Cloudy
4:55 PM 68.0 °F - 60.8 °F 78% 29.86 in 10.0 mi Calm Calm - N/A   Light Drizzle
5:15 PM 66.2 °F - 60.8 °F 83% 29.87 in 3.0 mi Calm Calm - N/A Rain Heavy Rain
5:35 PM 64.4 °F - 62.6 °F 94% 29.86 in 10.0 mi Calm Calm - N/A   Mostly Cloudy
6:15 PM 66.2 °F - 62.6 °F 88% 29.85 in 10.0 mi Calm Calm - N/A   Clear
6:35 PM 66.2 °F - 60.8 °F 83% 29.85 in 10.0 mi Calm Calm - N/A   Clear
6:55 PM 68.0 °F - 60.8 °F 78% 29.85 in 10.0 mi Variable 3.5 mph - N/A   Clear
7:15 PM 68.0 °F - 60.8 °F 78% 29.85 in 10.0 mi Calm Calm - N/A   Clear
7:35 PM 66.2 °F - 60.8 °F 83% 29.85 in 10.0 mi Calm Calm - N/A   Clear
7:55 PM 66.2 °F - 60.8 °F 83% 29.85 in 10.0 mi Calm Calm - N/A   Clear
8:15 PM 64.4 °F - 60.8 °F 88% 29.84 in 10.0 mi Calm Calm - N/A   Clear
8:35 PM 64.4 °F - 59.0 °F 83% 29.85 in 10.0 mi Calm Calm - N/A   Clear
8:55 PM 64.4 °F - 59.0 °F 83% 29.84 in 10.0 mi Calm Calm - N/A   Clear
9:15 PM 64.4 °F - 59.0 °F 83% 29.83 in 10.0 mi Calm Calm - N/A   Clear
9:35 PM 64.4 °F - 59.0 °F 83% 29.84 in 10.0 mi Calm Calm - N/A   Clear
9:55 PM 66.2 °F - 59.0 °F 78% 29.84 in 10.0 mi Calm Calm - N/A   Clear
10:15 PM 66.2 °F - 59.0 °F 78% 29.85 in 10.0 mi Calm Calm - N/A   Clear
11:15 PM 66.2 °F - 57.2 °F 73% 29.84 in 10.0 mi Calm Calm - N/A   Partly Cloudy
11:35 PM 66.2 °F - 57.2 °F 73% 29.84 in 10.0 mi Calm Calm - N/A   Clear
11:55 PM 66.2 °F - 57.2 °F 73% 29.83 in 10.0 mi ENE 4.6 mph - N/A   Partly Cloudy